Location: Zagreb
(45.8000°N, 16.0000°E)
Time: 23:39:57
(UTC+01:00)

BlueWalker 3 - Pass Details

Date: 07 December 2022
Orbit: 499 x 517 km, 53.2° (Epoch: 28 January)

Event Time Altitude Azimuth Distance (km) Brightness Sun altitude
Rises 16:58:14 0° 297° (WNW) 2,636 6.2 -8.0°
Reaches altitude 10° 17:00:37 10° 308° (NW) 1,744 5.1 -8.4°
Maximum altitude 17:04:12 32° 13° (NNE) 902 2.9 -8.9°
Enters shadow 17:07:16 13° 74° (ENE) 1,564 3.8 -9.4°
